Regional Weather Roundup
Issued by NWS Sioux Falls, SD

Home | Current Version | Previous Version | Text Only | Print | Product List | Glossary On
Versions: 1 2 3 4 5 6 7 8 9 10 11 12 13 14 15 16 17 18 19 20 21 22 23 24 25 26 27 28 29 30 31 32 33 34 35 36 37 38 39 40 41 42 43 44 45 46 47 48 49 50
000
ASUS43 KFSD 020110
RWRFSD

WEATHER ROUNDUP FOR SE SOUTH DAKOTA/SW MINNESOTA/NW IOWA
NATIONAL WEATHER SERVICE SIOUX FALLS SD
700 PM CST SUN FEB 01 2015

NOTE: "FAIR" INDICATES FEW OR NO CLOUDS BELOW 12,000 FEET WITH NO
SIGNIFICANT WEATHER AND OR OBSTRUCTIONS TO VISIBILITY.


SDZ038>040-050-052>070-020200-
SOUTHEAST SOUTH DAKOTA

CITY           SKY/WX    TMP DP  RH WIND       PRES   REMARKS
CHAMBERLAIN    CLEAR     -1  -8  74 NW8       30.37S WCI -16
HURON          CLEAR     -4 -10  75 NW8       30.39R WCI -19
MADISON        FAIR       3   0  85 N10G20    30.29R WCI -12
MITCHELL       CLEAR      2  -7  66 NW12      30.39R WCI -15
SIOUX FALLS    PTCLDY     5  -2  72 N13       30.29R WCI -12
WINNER         FAIR       0  -6  76 NW5       30.34F WCI -10
YANKTON        CLEAR      1  -4  78 NW16      30.37R WCI -18
$$

MNZ071-072-080-081-089-090-097-098-020200-
SOUTHWEST MINNESOTA

CITY           SKY/WX    TMP DP  RH WIND       PRES   REMARKS
FAIRMONT       PTCLDY    10   1  67 N14       30.19R WCI  -5
JACKSON        PTCLDY    12   3  67 N10       30.21R WCI  -1
LUVERNE        CLEAR      9   1  72 N12G20    30.28R WCI  -6
MARSHALL       CLEAR      7  -6  56 N20       30.31R WCI -13
MONTEVIDEO     CLEAR      7  -2  66 N13       30.34R WCI  -9
PIPESTONE      CLEAR      5  -2  72 N12G18    30.25S WCI -11
TRACY          PTCLDY     8   0  71 NW17G24   30.28R WCI -11
WINDOM         PTCLDY     9   1  72 NW14      30.23R WCI  -8
WORTHINGTON    PTCLDY    18  -2  41 NW18      30.24R WCI   2
$$

IAZ001>003-012>014-020>022-031-032-NEZ013-014-SDZ071-020200-
NORTHWEST IOWA

CITY           SKY/WX    TMP DP  RH WIND       PRES   REMARKS
CHEROKEE       PTCLDY    10   6  84 N13       30.24R WCI  -6
DENISON        CLOUDY    12   7  79 N14G21    30.20R WCI  -3
ESTHERVILLE    PTCLDY     9   3  77 N15       30.20R WCI  -8
LE MARS        CLOUDY     9   3  78 N17       30.30R WCI -10
ORANGE CITY    CLOUDY     9   1  72 N13G21    30.26R WCI  -7
SHELDON        CLOUDY     7   1  78 N17       30.24R WCI -12
SIOUX CITY     CLOUDY     7   2  80 NW21      30.30R WCI -13
SPENCER        FAIR      12   3  67 N18       30.22R WCI  -6
STORM LAKE     MOCLDY    10   5  79 N17       30.20R WCI  -7
$$

ABBREVIATIONS USED IN REMARKS
   TC - TEMPERATURE IN CELSIUS
  WCI - WIND CHILL INDEX
   HX - HEAT INDEX
  VSB - VISIBILITY




USA.gov is the U.S. government's official web portal to all federal, state and local government web resources and services.